This demonstration page uses our WeatherBlox Daily Observations layout. Learn more.

Left ArrowRight Arrow

53.62937, 11.41316

Hourly Observations for February 7, 2018

Temp ( °F °C ) Dew Point ( °F °C ) Humidity (%) Winds ( mph kmh ) Pressure ( in mb ) Visibility ( mi km ) Precip ( " mm )
7:50 am 07:50 Mostly Sunny 16 -9 14 -10 93 93 E 3 6 30.06 1018 7 11 N/A
8:20 am 08:20 Mostly Sunny 16 -9 14 -10 93 93 E 3 6 30.06 1018 7 11 N/A
8:50 am 08:50 Mostly Sunny 19 -7 18 -8 93 93 E 3 6 30.06 1018 7 11 N/A
9:20 am 09:20 Mostly Sunny 21 -6 21 -6 100 100 E 5 7 30.06 1018 7 11 N/A
9:50 am 09:50 Mostly Sunny 23 -5 21 -6 93 93 E 5 7 30.06 1018 7 11 N/A
10:20 am 10:20 Mostly Sunny 27 -3 19 -7 74 74 ENE 8 13 30.06 1018 7 11 N/A
10:50 am 10:50 Mostly Sunny 28 -2 19 -7 69 69 NE 8 13 30.06 1018 7 11 N/A
11:20 am 11:20 Mostly Sunny 28 -2 19 -7 69 69 ENE 9 15 30.09 1019 7 11 N/A
11:50 am 11:50 Mostly Sunny 30 -1 19 -7 64 64 ENE 9 15 30.06 1018 7 11 N/A
12:20 pm 12:20 Mostly Sunny 30 -1 18 -8 59 59 ENE 8 13 30.06 1018 7 11 N/A
12:50 pm 12:50 Mostly Sunny 32 0 18 -8 55 55 ENE 6 9 30.06 1018 7 11 N/A
1:20 pm 13:20 Mostly Sunny 32 0 18 -8 55 55 NNE 7 11 30.06 1018 7 11 N/A
1:50 pm 13:50 Mostly Sunny 32 0 18 -8 55 55 NE 7 11 30.06 1018 7 11 N/A
2:20 pm 14:20 Mostly Sunny 32 0 19 -7 60 60 NNE 6 9 30.03 1017 7 11 N/A
2:50 pm 14:50 Mostly Sunny 32 0 19 -7 60 60 N 7 11 30.03 1017 7 11 N/A
3:20 pm 15:20 Mostly Sunny 32 0 19 -7 60 60 N 7 11 30.03 1017 7 11 N/A
3:50 pm 15:50 Mostly Sunny 32 0 19 -7 60 60 N 7 11 30.03 1017 7 11 N/A
4:20 pm 16:20 Mostly Sunny 30 -1 19 -7 64 64 N 5 7 30.03 1017 7 11 N/A
4:50 pm 16:50 Mostly Sunny 28 -2 18 -8 64 64 N 3 6 30.06 1018 7 11 N/A
5:20 pm 17:20 Mostly Clear 27 -3 19 -7 74 74 N 5 7 30.09 1019 7 11 N/A
5:50 pm 17:50 Mostly Clear 25 -4 18 -8 74 74 N 5 7 30.09 1019 7 11 N/A

Powered by AerisWeather